AFL244 UUEE-FSIA

Flight info

Callsign AFL244
Flight time N/A
Altitude 37000
Route TOGMO3H TOGMO M56 DENUD M161 MILSO M875 AMDAR/N0500F370 M875 TAPIS L509 LAJAK M881 LAKRA G325 PG T385 TAPDO G652 GEPOT B400 HAI R401 SUHIL UM314 UDLET DCT ROUTY ROUTY1D
Aircraft A359/H-SDE2E3GHIJ3J4J5LM1ORWXY/LB1D1

Departure

Time 2026-04-30 17:54
Airport Sheremetyevo International Airport (UUEE)

Arrival

Time N/A
Airport Seychelles International Airport (FSIA)
Time Latitude Longitude Altitude Speed Heading
2026-04-30 17:39 55.97930 37.41226 645 ft 0 kts 255°
2026-04-30 17:46 55.97943 37.41313 647 ft 2 kts 242°
2026-04-30 17:47 55.97966 37.41348 648 ft 0 kts 161°
2026-04-30 17:48 55.97767 37.41440 645 ft 20 kts 165°
2026-04-30 17:49 55.97617 37.41680 645 ft 15 kts 95°
2026-04-30 17:50 55.97752 37.42631 647 ft 22 kts 75°
2026-04-30 17:51 55.97872 37.43434 645 ft 19 kts 75°
2026-04-30 17:52 55.97866 37.44064 646 ft 18 kts 167°
2026-04-30 17:53 55.97084 37.39297 1162 ft 156 kts 256°
2026-04-30 17:54 55.95664 37.30375 2801 ft 219 kts 256°
2026-04-30 17:55 55.93825 37.18542 5220 ft 257 kts 256°
2026-04-30 17:56 55.91811 37.05984 8317 ft 270 kts 256°
2026-04-30 17:57 55.90222 36.96102 10701 ft 280 kts 256°
2026-04-30 17:58 55.88582 36.85879 12849 ft 292 kts 256°
2026-04-30 17:59 55.82648 36.77348 15340 ft 315 kts 173°
2026-04-30 18:00 55.73855 36.80471 17702 ft 330 kts 167°
2026-04-30 18:00 55.67047 36.83566 19053 ft 350 kts 150°
2026-04-30 18:01 55.63240 36.89263 19520 ft 372 kts 132°
2026-04-30 18:02 55.57496 36.99535 20272 ft 411 kts 131°
2026-04-30 18:02 55.51284 37.10604 21601 ft 431 kts 131°
2026-04-30 18:03 55.44854 37.22013 23241 ft 443 kts 131°
2026-04-30 18:04 55.38248 37.33680 24702 ft 453 kts 131°
2026-04-30 18:05 55.29204 37.49559 26524 ft 466 kts 132°
2026-04-30 18:06 55.19880 37.65819 28254 ft 479 kts 132°
2026-04-30 18:07 55.10295 37.82412 29807 ft 493 kts 133°
2026-04-30 18:08 55.02896 37.95138 30734 ft 502 kts 133°
2026-04-30 18:09 54.92893 38.12235 32136 ft 504 kts 134°
2026-04-30 18:10 54.82871 38.29241 33520 ft 503 kts 134°
2026-04-30 18:11 54.72835 38.46145 34713 ft 503 kts 135°
2026-04-30 18:11 54.65294 38.58778 35442 ft 503 kts 135°
2026-04-30 18:12 54.57728 38.71365 36120 ft 504 kts 135°
2026-04-30 18:13 54.52684 38.79740 36549 ft 504 kts 135°
2026-04-30 18:13 54.45950 38.90846 37102 ft 504 kts 136°
2026-04-30 18:14 54.40133 39.00863 37214 ft 510 kts 128°
2026-04-30 18:15 54.35180 39.16855 37219 ft 507 kts 111°
2026-04-30 18:15 54.31289 39.33721 37215 ft 508 kts 111°
2026-04-30 18:16 54.25899 39.56087 37214 ft 508 kts 112°
2026-04-30 18:17 54.23158 39.67218 37212 ft 508 kts 112°
2026-04-30 18:18 54.19029 39.83901 37213 ft 508 kts 112°
2026-04-30 18:18 54.16285 39.94933 37212 ft 508 kts 112°
2026-04-30 18:19 54.13513 40.06023 37211 ft 508 kts 113°
2026-04-30 18:19 54.11022 40.17371 37210 ft 508 kts 107°
2026-04-30 18:20 54.08989 40.28821 37211 ft 508 kts 106°
2026-04-30 18:20 54.06998 40.40365 37215 ft 508 kts 106°
2026-04-30 18:21 54.04994 40.51902 37212 ft 508 kts 106°
2026-04-30 18:21 54.02969 40.63416 37212 ft 508 kts 107°
2026-04-30 18:22 54.00926 40.74923 37210 ft 508 kts 107°
2026-04-30 18:22 53.97841 40.92168 37210 ft 508 kts 107°
2026-04-30 18:23 53.95773 41.03638 37205 ft 508 kts 107°
2026-04-30 18:23 53.93799 41.15165 37208 ft 508 kts 105°
2026-04-30 18:24 53.91324 41.30571 37201 ft 508 kts 105°
2026-04-30 18:25 53.89438 41.42119 37203 ft 509 kts 105°
2026-04-30 18:25 53.86547 41.59417 37203 ft 508 kts 106°
2026-04-30 18:26 53.83625 41.76680 37203 ft 509 kts 106°
2026-04-30 18:27 53.80642 41.94111 37200 ft 519 kts 107°
2026-04-30 18:28 53.77579 42.11767 37201 ft 524 kts 107°
2026-04-30 18:28 53.74518 42.29320 37199 ft 512 kts 106°
2026-04-30 18:29 53.70459 42.52246 37188 ft 509 kts 107°
2026-04-30 18:30 53.66422 42.75160 37186 ft 510 kts 105°
2026-04-30 18:31 53.63760 42.92500 37179 ft 510 kts 105°
2026-04-30 18:32 53.61053 43.09815 37170 ft 510 kts 105°
2026-04-30 18:33 53.58278 43.27092 37164 ft 509 kts 106°
2026-04-30 18:33 53.55477 43.44338 37158 ft 510 kts 106°
2026-04-30 18:34 53.52653 43.61566 37149 ft 509 kts 106°
2026-04-30 18:35 53.50768 43.73038 37145 ft 509 kts 107°
2026-04-30 18:35 53.48862 43.84494 37140 ft 509 kts 107°
2026-04-30 18:36 53.45987 44.01583 37131 ft 509 kts 107°
2026-04-30 18:37 53.43079 44.18726 37123 ft 509 kts 107°
2026-04-30 18:37 53.41130 44.30134 37121 ft 509 kts 107°
2026-04-30 18:38 53.39172 44.41525 37116 ft 509 kts 108°
2026-04-30 18:38 53.37202 44.52913 37116 ft 509 kts 108°
2026-04-30 18:39 53.35223 44.64287 37108 ft 509 kts 108°
2026-04-30 18:39 53.33230 44.75646 37108 ft 509 kts 108°
2026-04-30 18:40 53.31226 44.86998 37110 ft 509 kts 108°
2026-04-30 18:40 53.29212 44.98344 37109 ft 509 kts 108°
2026-04-30 18:41 53.27181 45.09664 37111 ft 508 kts 109°
2026-04-30 18:41 53.24831 45.20785 37111 ft 507 kts 112°
2026-04-30 18:42 53.22329 45.31797 37104 ft 507 kts 112°
2026-04-30 18:42 53.18641 45.48335 37097 ft 507 kts 112°
2026-04-30 18:45 53.05225 46.08796 37094 ft 505 kts 112°
2026-04-30 18:46 53.02777 46.19723 37089 ft 504 kts 112°
2026-04-30 18:46 53.00319 46.30632 37087 ft 504 kts 113°
2026-04-30 18:47 52.97873 46.41431 37085 ft 503 kts 113°
2026-04-30 18:47 52.95405 46.52294 37080 ft 503 kts 113°
2026-04-30 18:48 52.92927 46.63124 37081 ft 502 kts 113°
2026-04-30 18:48 52.90424 46.73996 37074 ft 502 kts 113°
2026-04-30 18:49 52.87926 46.84798 37072 ft 502 kts 114°
2026-04-30 18:49 52.85423 46.95572 37064 ft 502 kts 114°
2026-04-30 18:50 52.82924 47.06279 37061 ft 502 kts 114°
2026-04-30 18:50 52.80442 47.17064 37056 ft 503 kts 112°
2026-04-30 18:51 52.78138 47.27968 37055 ft 503 kts 112°
2026-04-30 18:51 52.75851 47.38887 37049 ft 503 kts 112°
2026-04-30 18:52 52.73527 47.49774 37052 ft 503 kts 112°
2026-04-30 18:52 52.71179 47.60632 37048 ft 502 kts 112°
2026-04-30 18:53 52.68831 47.71475 37045 ft 502 kts 112°
2026-04-30 18:53 52.66472 47.82302 37044 ft 502 kts 113°
2026-04-30 18:54 52.64108 47.93103 37043 ft 501 kts 113°
2026-04-30 18:54 52.61737 48.03882 37044 ft 501 kts 113°
2026-04-30 18:55 52.59361 48.14645 37047 ft 500 kts 113°
2026-04-30 18:55 52.55765 48.30742 37043 ft 500 kts 114°
2026-04-30 18:56 52.52153 48.46782 37050 ft 499 kts 114°
2026-04-30 18:57 52.48525 48.62792 37048 ft 499 kts 114°
2026-04-30 18:57 52.46099 48.73430 37055 ft 498 kts 114°
2026-04-30 18:58 52.42440 48.89370 37059 ft 498 kts 115°
2026-04-30 18:59 52.38764 49.05276 37060 ft 497 kts 115°
2026-04-30 19:00 52.33846 49.26337 37060 ft 497 kts 115°
2026-04-30 19:01 52.28863 49.47396 37063 ft 496 kts 115°
2026-04-30 19:02 52.25114 49.63142 37068 ft 496 kts 116°
2026-04-30 19:03 52.20084 49.84105 37064 ft 496 kts 116°
2026-04-30 19:04 52.15021 50.05001 37063 ft 496 kts 116°
2026-04-30 19:05 52.09915 50.25865 37067 ft 496 kts 117°
2026-04-30 19:06 52.04771 50.46691 37068 ft 496 kts 117°
2026-04-30 19:06 52.00888 50.62283 37070 ft 497 kts 117°
2026-04-30 19:07 51.96572 50.77453 37069 ft 488 kts 129°
2026-04-30 19:08 51.92080 50.85410 37066 ft 474 kts 147°
2026-04-30 19:08 51.86407 50.90465 37070 ft 462 kts 165°
2026-04-30 19:09 51.78196 50.94205 37068 ft 461 kts 168°
2026-04-30 19:09 51.71981 50.96782 37065 ft 461 kts 168°
2026-04-30 19:10 51.65954 51.00417 37069 ft 468 kts 155°
2026-04-30 19:10 51.60373 51.05919 37063 ft 472 kts 151°
2026-04-30 19:11 51.52165 51.14693 37067 ft 473 kts 151°
2026-04-30 19:12 51.46687 51.20529 37067 ft 472 kts 151°
2026-04-30 19:12 51.41207 51.26334 37065 ft 473 kts 151°
2026-04-30 19:13 51.30272 51.38039 37067 ft 473 kts 151°
2026-04-30 19:14 51.24798 51.43866 37078 ft 473 kts 151°
2026-04-30 19:14 51.19319 51.49674 37076 ft 473 kts 151°
2026-04-30 19:15 51.14114 51.56170 37076 ft 481 kts 139°
2026-04-30 19:15 51.07528 51.68357 37064 ft 486 kts 134°
2026-04-30 19:16 51.03261 51.76682 37075 ft 486 kts 134°
2026-04-30 19:17 50.96817 51.89112 37064 ft 486 kts 135°
2026-04-30 19:17 50.90341 52.01461 37060 ft 486 kts 135°
2026-04-30 19:18 50.83847 52.13778 37061 ft 486 kts 135°
2026-04-30 19:19 50.79512 52.21973 37058 ft 486 kts 135°
2026-04-30 19:19 50.72997 52.34237 37056 ft 486 kts 135°
2026-04-30 19:20 50.68646 52.42396 37062 ft 486 kts 135°
2026-04-30 19:21 50.62169 52.54593 37055 ft 486 kts 135°
2026-04-30 19:22 50.53484 52.70887 37054 ft 486 kts 135°
2026-04-30 19:23 50.40412 52.95198 37056 ft 485 kts 135°
2026-04-30 19:24 50.33865 53.07290 37045 ft 485 kts 135°
2026-04-30 19:25 50.22933 53.27353 37047 ft 484 kts 135°
2026-04-30 19:26 50.14173 53.43320 37047 ft 484 kts 135°
2026-04-30 19:27 50.07595 53.55244 37056 ft 484 kts 136°
2026-04-30 19:28 50.01011 53.67126 37048 ft 483 kts 136°
2026-04-30 19:29 49.92220 53.82905 37047 ft 483 kts 136°
2026-04-30 19:30 49.83412 53.98620 37053 ft 482 kts 136°
2026-04-30 19:31 49.74584 54.14272 37055 ft 483 kts 136°
2026-04-30 19:31 49.67948 54.25977 37050 ft 483 kts 136°
2026-04-30 19:32 49.63519 54.33761 37048 ft 483 kts 136°
2026-04-30 19:32 49.59084 54.41532 37048 ft 483 kts 136°
2026-04-30 19:33 49.54642 54.49293 37048 ft 483 kts 137°
2026-04-30 19:33 49.50197 54.57033 37038 ft 483 kts 137°
2026-04-30 19:34 49.45741 54.64770 37046 ft 483 kts 137°
2026-04-30 19:35 49.39079 54.76296 37043 ft 483 kts 137°
2026-04-30 19:35 49.34610 54.83999 37042 ft 483 kts 137°
2026-04-30 19:36 49.30139 54.91683 37037 ft 483 kts 137°
2026-04-30 19:36 49.23418 55.03191 37034 ft 483 kts 137°
2026-04-30 19:37 49.18932 55.10844 37041 ft 483 kts 137°
2026-04-30 19:37 49.14444 55.18486 37031 ft 483 kts 137°
2026-04-30 19:38 49.09949 55.26115 37031 ft 483 kts 137°
2026-04-30 19:38 49.05446 55.33726 37027 ft 483 kts 137°
2026-04-30 19:39 49.00937 55.41328 37025 ft 483 kts 137°
2026-04-30 19:39 48.96424 55.48918 37024 ft 483 kts 137°
2026-04-30 19:40 48.91908 55.56489 37021 ft 483 kts 137°
2026-04-30 19:40 48.87391 55.64043 37019 ft 483 kts 137°
2026-04-30 19:41 48.82865 55.71591 37013 ft 483 kts 137°
2026-04-30 19:41 48.78337 55.79111 37018 ft 483 kts 138°
2026-04-30 19:42 48.73803 55.86615 37011 ft 483 kts 138°
2026-04-30 19:42 48.69262 55.94110 37012 ft 483 kts 138°
2026-04-30 19:43 48.64726 56.01588 37005 ft 482 kts 138°
2026-04-30 19:44 48.57908 56.12761 37003 ft 482 kts 138°
2026-04-30 19:44 48.53358 56.20191 37003 ft 482 kts 138°
2026-04-30 19:45 48.48805 56.27620 36995 ft 482 kts 138°
2026-04-30 19:45 48.44245 56.35021 36983 ft 482 kts 138°
2026-04-30 19:46 48.39681 56.42407 36998 ft 482 kts 138°
2026-04-30 19:46 48.35112 56.49786 36996 ft 482 kts 138°
2026-04-30 19:47 48.30545 56.57157 36994 ft 482 kts 138°
2026-04-30 19:47 48.25970 56.64514 36983 ft 482 kts 138°
2026-04-30 19:48 48.21388 56.71860 36989 ft 482 kts 139°
2026-04-30 19:48 48.16805 56.79189 37000 ft 482 kts 139°
2026-04-30 19:49 48.12218 56.86505 36991 ft 482 kts 139°
2026-04-30 19:49 48.05325 56.97462 36988 ft 482 kts 139°
2026-04-30 19:50 48.00725 57.04748 36989 ft 482 kts 139°
2026-04-30 19:50 47.96116 57.12027 36986 ft 482 kts 139°
2026-04-30 19:51 47.91537 57.19240 36985 ft 482 kts 139°
2026-04-30 19:51 47.86920 57.26493 36982 ft 482 kts 139°
2026-04-30 19:52 47.82298 57.33732 36971 ft 482 kts 139°
2026-04-30 19:52 47.77677 57.40950 36979 ft 482 kts 139°
2026-04-30 19:53 47.73044 57.48167 36978 ft 482 kts 139°
2026-04-30 19:53 47.69163 57.54199 36974 ft 482 kts 139°
2026-04-30 19:54 47.64551 57.61347 36970 ft 483 kts 139°
2026-04-30 19:54 47.59905 57.68532 36973 ft 483 kts 139°
2026-04-30 19:55 47.55252 57.75702 36969 ft 483 kts 139°
2026-04-30 19:55 47.50591 57.82865 36966 ft 483 kts 139°
2026-04-30 19:56 47.45894 57.90065 36967 ft 483 kts 139°
2026-04-30 19:56 47.41256 57.97156 36968 ft 483 kts 139°
2026-04-30 19:57 47.36577 58.04290 36964 ft 484 kts 139°
2026-04-30 19:57 47.31894 58.11411 36963 ft 484 kts 139°
2026-04-30 19:58 47.27205 58.18518 36961 ft 484 kts 140°
2026-04-30 19:58 47.22508 58.25618 36958 ft 484 kts 140°
2026-04-30 19:59 47.17808 58.32702 36960 ft 484 kts 140°
2026-04-30 20:00 47.10750 58.43303 36957 ft 484 kts 140°
2026-04-30 20:00 47.06038 58.50358 36949 ft 484 kts 140°
2026-04-30 20:01 46.98963 58.60915 36954 ft 484 kts 140°
2026-04-30 20:01 46.94240 58.67940 36954 ft 484 kts 140°
2026-04-30 20:02 46.87148 58.78450 36953 ft 484 kts 140°
2026-04-30 20:03 46.80043 58.88938 36954 ft 484 kts 140°
2026-04-30 20:03 46.75328 58.95876 36945 ft 484 kts 140°
2026-04-30 20:04 46.70582 59.02842 36943 ft 484 kts 140°
2026-04-30 20:05 46.63449 59.13275 36951 ft 484 kts 140°
2026-04-30 20:05 46.56310 59.23675 36949 ft 485 kts 140°
2026-04-30 20:06 46.51543 59.30599 36951 ft 485 kts 140°
2026-04-30 20:06 46.46771 59.37510 36946 ft 485 kts 140°
2026-04-30 20:07 46.41994 59.44411 36943 ft 485 kts 140°
2026-04-30 20:08 46.34826 59.54731 36945 ft 485 kts 140°
2026-04-30 20:08 46.30039 59.61601 36950 ft 485 kts 140°
2026-04-30 20:09 46.25244 59.68463 36949 ft 485 kts 140°
2026-04-30 20:09 46.17976 59.78574 36948 ft 483 kts 143°
2026-04-30 20:10 46.10495 59.88313 36944 ft 486 kts 143°
2026-04-30 20:11 46.03027 59.98102 36945 ft 482 kts 143°
2026-04-30 20:11 45.98078 60.04607 36944 ft 482 kts 143°
2026-04-30 20:12 45.90641 60.14352 36948 ft 482 kts 143°
2026-04-30 20:13 45.85679 60.20830 36957 ft 482 kts 143°
2026-04-30 20:13 45.80715 60.27294 36943 ft 482 kts 143°
2026-04-30 20:14 45.75749 60.33744 36942 ft 482 kts 143°
2026-04-30 20:14 45.70813 60.40141 36943 ft 482 kts 143°
2026-04-30 20:15 45.65839 60.46569 36948 ft 482 kts 143°
2026-04-30 20:15 45.60865 60.52983 36946 ft 482 kts 143°
2026-04-30 20:16 45.55882 60.59390 36941 ft 482 kts 144°
2026-04-30 20:16 45.50897 60.65786 36945 ft 482 kts 144°
2026-04-30 20:17 45.45907 60.72172 36946 ft 482 kts 144°
2026-04-30 20:17 45.40613 60.77851 36945 ft 471 kts 156°
2026-04-30 20:18 45.34814 60.82123 36944 ft 469 kts 159°
2026-04-30 20:18 45.28941 60.86136 36946 ft 468 kts 160°
2026-04-30 20:19 45.23062 60.90125 36944 ft 468 kts 160°
2026-04-30 20:19 45.17186 60.94136 36947 ft 468 kts 160°
2026-04-30 20:20 45.11323 60.98150 36949 ft 468 kts 160°
2026-04-30 20:20 45.05454 61.02162 36952 ft 468 kts 160°
2026-04-30 20:21 44.99590 61.06160 36955 ft 468 kts 160°
2026-04-30 20:21 44.93721 61.10151 36958 ft 468 kts 160°
2026-04-30 20:22 44.87858 61.14128 36953 ft 468 kts 160°
2026-04-30 20:22 44.81985 61.18104 36949 ft 468 kts 160°
2026-04-30 20:23 44.76116 61.22067 36953 ft 468 kts 160°
2026-04-30 20:23 44.70241 61.26025 36953 ft 468 kts 160°
2026-04-30 20:24 44.64364 61.29976 36954 ft 468 kts 160°
2026-04-30 20:24 44.58480 61.33923 36955 ft 469 kts 160°
2026-04-30 20:25 44.49643 61.39834 36961 ft 469 kts 160°
2026-04-30 20:26 44.40840 61.45703 36963 ft 470 kts 160°
2026-04-30 20:26 44.31981 61.51589 36961 ft 470 kts 160°
2026-04-30 20:27 44.20137 61.59427 36966 ft 472 kts 160°
2026-04-30 20:28 44.08262 61.67263 36967 ft 473 kts 160°
2026-04-30 20:30 43.93380 61.77034 36974 ft 474 kts 160°
2026-04-30 20:31 43.75461 61.88732 36970 ft 475 kts 160°
2026-04-30 20:32 43.60525 61.98423 36974 ft 476 kts 160°
2026-04-30 20:33 43.51518 62.04242 36983 ft 477 kts 160°
2026-04-30 20:34 43.42727 62.10797 36979 ft 484 kts 152°
2026-04-30 20:35 43.34336 62.18614 36983 ft 486 kts 151°
2026-04-30 20:35 43.25961 62.26496 36981 ft 487 kts 151°
2026-04-30 20:36 43.20355 62.31728 36980 ft 487 kts 151°
2026-04-30 20:37 43.11934 62.39551 36982 ft 488 kts 151°
2026-04-30 20:37 43.06309 62.44763 36982 ft 489 kts 151°
2026-04-30 20:38 43.00675 62.49972 36982 ft 489 kts 151°
2026-04-30 20:38 42.95038 62.55172 36985 ft 489 kts 151°
2026-04-30 20:39 42.86564 62.62966 36984 ft 490 kts 151°
2026-04-30 20:40 42.78068 62.70755 36987 ft 491 kts 151°
2026-04-30 20:40 42.72436 62.75904 36987 ft 491 kts 151°
2026-04-30 20:41 42.63918 62.83670 36987 ft 492 kts 151°
2026-04-30 20:41 42.58225 62.88846 36991 ft 492 kts 151°
2026-04-30 20:42 42.53453 62.93176 36995 ft 493 kts 151°
2026-04-30 20:43 42.44940 63.00880 36994 ft 493 kts 151°
2026-04-30 20:43 42.39235 63.06030 36986 ft 493 kts 151°
2026-04-30 20:44 42.30668 63.13744 36991 ft 493 kts 151°
2026-04-30 20:45 42.19225 63.23993 36992 ft 494 kts 151°
2026-04-30 20:45 42.13499 63.29109 36989 ft 494 kts 151°
2026-04-30 20:46 42.02031 63.39320 36989 ft 494 kts 151°
2026-04-30 20:47 41.93419 63.46959 36987 ft 495 kts 151°
2026-04-30 20:48 41.84797 63.54581 36994 ft 495 kts 151°
2026-04-30 20:48 41.79042 63.59656 36995 ft 495 kts 151°
2026-04-30 20:49 41.73288 63.64718 36985 ft 495 kts 151°
2026-04-30 20:50 41.64651 63.72296 36990 ft 495 kts 151°
2026-04-30 20:50 41.58882 63.77344 36990 ft 496 kts 151°
2026-04-30 20:51 41.53109 63.82384 36988 ft 496 kts 151°
2026-04-30 20:51 41.44440 63.89932 36987 ft 496 kts 152°
2026-04-30 20:52 41.38655 63.94957 36984 ft 496 kts 152°
2026-04-30 20:53 41.30008 64.02459 36978 ft 497 kts 152°
2026-04-30 20:53 41.24211 64.07469 36970 ft 497 kts 152°
2026-04-30 20:54 41.15506 64.14975 36967 ft 498 kts 152°
2026-04-30 20:55 41.06788 64.22469 36960 ft 498 kts 152°
2026-04-30 20:55 41.00968 64.27459 36962 ft 499 kts 152°
2026-04-30 20:56 40.92224 64.34937 36965 ft 499 kts 152°
2026-04-30 20:57 40.83470 64.42399 36970 ft 500 kts 152°
2026-04-30 20:57 40.77616 64.47375 36961 ft 500 kts 152°
2026-04-30 20:58 40.68834 64.54821 36968 ft 501 kts 152°
2026-04-30 20:58 40.62966 64.59783 36968 ft 501 kts 152°
2026-04-30 20:59 40.54160 64.67210 36966 ft 502 kts 152°
2026-04-30 21:00 40.42384 64.77104 36968 ft 503 kts 152°
2026-04-30 21:01 40.33532 64.84515 36965 ft 503 kts 152°
2026-04-30 21:02 40.24706 64.91880 36968 ft 504 kts 152°
2026-04-30 21:02 40.18786 64.96808 36965 ft 504 kts 153°
2026-04-30 21:03 40.12859 65.01731 36964 ft 505 kts 153°
2026-04-30 21:03 40.06929 65.06646 36961 ft 505 kts 153°
2026-04-30 21:04 40.00987 65.11562 36957 ft 506 kts 153°
2026-04-30 21:04 39.92068 65.18919 36951 ft 506 kts 153°
2026-04-30 21:05 39.86117 65.23816 36949 ft 506 kts 153°
2026-04-30 21:05 39.80157 65.28709 36948 ft 506 kts 153°
2026-04-30 21:06 39.74191 65.33598 36942 ft 507 kts 153°
2026-04-30 21:06 39.68224 65.38477 36939 ft 507 kts 153°
2026-04-30 21:07 39.62248 65.43354 36935 ft 507 kts 153°
2026-04-30 21:07 39.56272 65.48220 36930 ft 508 kts 153°
2026-04-30 21:08 39.50285 65.53085 36924 ft 508 kts 153°
2026-04-30 21:08 39.44327 65.57918 36925 ft 508 kts 153°
2026-04-30 21:09 39.38333 65.62770 36924 ft 508 kts 153°
2026-04-30 21:09 39.32332 65.67616 36921 ft 509 kts 154°
2026-04-30 21:10 39.26326 65.72458 36919 ft 509 kts 154°
2026-04-30 21:10 39.20310 65.77298 36916 ft 510 kts 154°
2026-04-30 21:11 39.14292 65.82130 36919 ft 510 kts 154°
2026-04-30 21:11 39.08260 65.86960 36916 ft 511 kts 154°
2026-04-30 21:12 39.02218 65.91788 36920 ft 511 kts 154°
2026-04-30 21:12 38.96172 65.96611 36919 ft 512 kts 154°
2026-04-30 21:13 38.90116 66.01431 36916 ft 512 kts 154°
2026-04-30 21:13 38.84051 66.06251 36917 ft 513 kts 154°
2026-04-30 21:14 38.77974 66.11071 36927 ft 514 kts 154°
2026-04-30 21:14 38.71894 66.15883 36922 ft 514 kts 154°
2026-04-30 21:15 38.65802 66.20695 36921 ft 515 kts 154°
2026-04-30 21:15 38.59711 66.25504 36925 ft 515 kts 154°
2026-04-30 21:16 38.53678 66.30356 36933 ft 516 kts 154°
2026-04-30 21:16 38.47603 66.35264 36946 ft 517 kts 154°
2026-04-30 21:17 38.41514 66.40164 36956 ft 518 kts 154°
2026-04-30 21:17 38.35413 66.45050 36960 ft 518 kts 154°
2026-04-30 21:18 38.29303 66.49932 36967 ft 519 kts 154°
2026-04-30 21:18 38.23186 66.54809 36970 ft 519 kts 154°
2026-04-30 21:19 38.17059 66.59684 36980 ft 520 kts 154°
2026-04-30 21:19 38.10915 66.64565 36976 ft 521 kts 154°
2026-04-30 21:20 38.04768 66.69437 36975 ft 521 kts 154°
2026-04-30 21:20 37.98611 66.74308 36977 ft 522 kts 155°
2026-04-30 21:21 37.92433 66.79133 36968 ft 522 kts 155°
2026-04-30 21:22 37.83139 66.86345 36956 ft 523 kts 155°
2026-04-30 21:23 37.70708 66.95991 36933 ft 525 kts 155°
2026-04-30 21:23 37.61400 67.03193 36918 ft 526 kts 155°
2026-04-30 21:24 37.55157 67.08010 36906 ft 526 kts 155°
2026-04-30 21:24 37.48904 67.12825 36900 ft 527 kts 155°
2026-04-30 21:25 37.39497 67.20050 36897 ft 529 kts 156°
2026-04-30 21:26 37.30063 67.27276 36896 ft 530 kts 156°
2026-04-30 21:27 37.20605 67.34498 36894 ft 531 kts 156°
2026-04-30 21:27 37.14222 67.39109 36891 ft 529 kts 159°
2026-04-30 21:28 37.04512 67.45708 36892 ft 530 kts 159°
2026-04-30 21:29 36.94807 67.52378 36894 ft 531 kts 159°
2026-04-30 21:30 36.78609 67.63554 36913 ft 533 kts 159°
2026-04-30 21:31 36.63437 67.73999 36932 ft 535 kts 159°
2026-04-30 21:32 36.53658 67.80727 36943 ft 536 kts 159°
2026-04-30 21:32 36.47130 67.85205 36959 ft 536 kts 159°
2026-04-30 21:33 36.37375 67.91880 36982 ft 536 kts 159°
2026-04-30 21:34 36.30832 67.96347 36981 ft 537 kts 159°
2026-04-30 21:34 36.21009 68.03034 36994 ft 537 kts 159°
2026-04-30 21:35 36.14453 68.07483 37003 ft 537 kts 159°
2026-04-30 21:35 36.07889 68.11932 37014 ft 539 kts 159°
2026-04-30 21:36 36.01313 68.16389 37024 ft 539 kts 159°
2026-04-30 21:37 35.88136 68.25285 37028 ft 540 kts 159°
2026-04-30 21:37 35.81535 68.29727 37035 ft 541 kts 159°
2026-04-30 21:38 35.74934 68.34157 37038 ft 541 kts 159°
2026-04-30 21:38 35.68324 68.38591 37033 ft 541 kts 159°
2026-04-30 21:39 35.61701 68.43021 37045 ft 542 kts 159°
2026-04-30 21:39 35.55110 68.47417 37056 ft 543 kts 160°
2026-04-30 21:40 35.48413 68.51849 37070 ft 544 kts 160°
2026-04-30 21:40 35.41740 68.56252 37078 ft 544 kts 160°
2026-04-30 21:41 35.35113 68.60623 37083 ft 544 kts 160°
2026-04-30 21:41 35.28447 68.64998 37108 ft 544 kts 160°
2026-04-30 21:42 35.21753 68.69386 37083 ft 547 kts 160°
2026-04-30 21:42 35.15039 68.73788 37077 ft 548 kts 160°
2026-04-30 21:43 35.08334 68.78193 37043 ft 546 kts 160°
2026-04-30 21:43 35.01633 68.82569 37043 ft 547 kts 160°
2026-04-30 21:44 34.94928 68.86955 37004 ft 547 kts 160°
2026-04-30 21:44 34.88218 68.91320 36964 ft 547 kts 160°
2026-04-30 21:45 34.81495 68.95689 36959 ft 547 kts 160°
2026-04-30 21:45 34.74770 69.00054 36947 ft 548 kts 160°
2026-04-30 21:46 34.68035 69.04418 36935 ft 549 kts 160°
2026-04-30 21:46 34.61296 69.08781 36929 ft 549 kts 160°
2026-04-30 21:47 34.54681 69.13507 36914 ft 561 kts 149°
2026-04-30 21:47 34.51767 69.16702 36911 ft 571 kts 137°
2026-04-30 21:47 34.49353 69.20566 36914 ft 579 kts 124°
2026-04-30 21:48 34.45460 69.29154 36909 ft 583 kts 120°
2026-04-30 21:48 34.41833 69.37951 36903 ft 584 kts 119°
2026-04-30 21:49 34.38191 69.46732 36903 ft 583 kts 120°
2026-04-30 21:49 34.34490 69.55464 36909 ft 583 kts 120°
2026-04-30 21:50 34.30758 69.64174 36909 ft 583 kts 120°
2026-04-30 21:50 34.27018 69.72878 36898 ft 583 kts 120°
2026-04-30 21:51 34.23279 69.81566 36884 ft 583 kts 120°
2026-04-30 21:51 34.19539 69.90240 36884 ft 581 kts 120°
2026-04-30 21:52 34.15799 69.98893 36868 ft 581 kts 120°
2026-04-30 21:52 34.12017 70.07541 36871 ft 582 kts 120°
2026-04-30 21:53 34.08226 70.16159 36877 ft 582 kts 120°
2026-04-30 21:53 34.04435 70.24775 36873 ft 582 kts 120°
2026-04-30 21:54 34.00668 70.33326 36869 ft 581 kts 120°
2026-04-30 21:54 33.96543 70.41636 36870 ft 574 kts 133°
2026-04-30 21:55 33.93829 70.45107 36861 ft 565 kts 144°
2026-04-30 21:55 33.90688 70.47860 36867 ft 554 kts 157°
2026-04-30 21:55 33.87247 70.49802 36873 ft 540 kts 169°
2026-04-30 21:55 33.83653 70.50902 36869 ft 526 kts 180°
2026-04-30 21:56 33.76432 70.51807 36860 ft 520 kts 185°
2026-04-30 21:56 33.69221 70.52415 36870 ft 520 kts 185°
2026-04-30 21:57 33.62000 70.53043 36850 ft 521 kts 184°
2026-04-30 21:57 33.54781 70.53725 36834 ft 521 kts 184°
2026-04-30 21:58 33.47557 70.54427 36825 ft 521 kts 184°
2026-04-30 21:58 33.40336 70.55131 36812 ft 520 kts 184°
2026-04-30 21:59 33.33115 70.55831 36801 ft 521 kts 184°
2026-04-30 22:00 33.22280 70.56875 36782 ft 521 kts 184°
2026-04-30 22:00 33.11439 70.57920 36769 ft 521 kts 184°
2026-04-30 22:01 33.04209 70.58614 36760 ft 521 kts 184°
2026-04-30 22:01 32.97019 70.58882 36753 ft 508 kts 194°
2026-04-30 22:02 32.93589 70.58204 36759 ft 494 kts 204°
2026-04-30 22:02 32.90372 70.56903 36743 ft 481 kts 213°
2026-04-30 22:02 32.84655 70.53033 36749 ft 470 kts 221°
2026-04-30 22:03 32.79176 70.48793 36756 ft 470 kts 221°
2026-04-30 22:03 32.73708 70.44532 36746 ft 470 kts 221°
2026-04-30 22:04 32.68247 70.40336 36760 ft 471 kts 221°
2026-04-30 22:05 32.59926 70.34104 36763 ft 474 kts 219°
2026-04-30 22:05 32.54217 70.30176 36756 ft 475 kts 218°
2026-04-30 22:06 32.48491 70.26267 36764 ft 475 kts 218°
2026-04-30 22:06 32.39945 70.20366 36759 ft 474 kts 218°
2026-04-30 22:07 32.34267 70.16416 36774 ft 473 kts 219°
2026-04-30 22:07 32.28658 70.12366 36768 ft 472 kts 220°
2026-04-30 22:08 32.23057 70.08285 36767 ft 473 kts 219°
2026-04-30 22:08 32.17443 70.04222 36766 ft 473 kts 219°
2026-04-30 22:09 32.11811 70.00181 36769 ft 473 kts 219°
2026-04-30 22:09 32.06225 69.96172 36767 ft 473 kts 219°
2026-04-30 22:10 32.00593 69.92133 36780 ft 474 kts 219°
2026-04-30 22:10 31.94943 69.88088 36782 ft 476 kts 219°
2026-04-30 22:11 31.86461 69.82039 36791 ft 474 kts 219°
2026-04-30 22:12 31.80831 69.78029 36816 ft 474 kts 219°
2026-04-30 22:12 31.75193 69.74014 36813 ft 473 kts 219°
2026-04-30 22:13 31.69556 69.70009 36822 ft 473 kts 219°
2026-04-30 22:13 31.63922 69.66011 36826 ft 473 kts 219°
2026-04-30 22:14 31.58286 69.62018 36827 ft 473 kts 219°
2026-04-30 22:14 31.52656 69.58030 36834 ft 473 kts 219°
2026-04-30 22:15 31.47013 69.54044 36835 ft 473 kts 219°
2026-04-30 22:15 31.41375 69.50068 36831 ft 473 kts 219°
2026-04-30 22:16 31.35900 69.45868 36834 ft 464 kts 227°
2026-04-30 22:17 31.27060 69.35208 36828 ft 455 kts 235°
2026-04-30 22:17 31.20671 69.26998 36823 ft 456 kts 234°
2026-04-30 22:18 31.14264 69.18848 36821 ft 456 kts 234°
2026-04-30 22:19 31.07816 69.10683 36816 ft 456 kts 234°
2026-04-30 22:20 31.02066 69.03413 36817 ft 456 kts 234°
2026-04-30 22:20 30.95608 68.95268 36812 ft 456 kts 234°
2026-04-30 22:21 30.91302 68.89846 36818 ft 456 kts 234°
2026-04-30 22:21 30.86998 68.84432 36809 ft 455 kts 234°
2026-04-30 22:22 30.82691 68.79022 36807 ft 455 kts 234°
2026-04-30 22:22 30.78382 68.73618 36805 ft 455 kts 234°
2026-04-30 22:23 30.74073 68.68222 36804 ft 455 kts 234°
2026-04-30 22:23 30.69765 68.62834 36804 ft 455 kts 234°
2026-04-30 22:24 30.65449 68.57445 36808 ft 455 kts 234°
2026-04-30 22:24 30.61135 68.52065 36809 ft 455 kts 234°
2026-04-30 22:25 30.56822 68.46694 36808 ft 454 kts 234°
2026-04-30 22:25 30.52514 68.41340 36813 ft 454 kts 234°
2026-04-30 22:26 30.46082 68.33356 36814 ft 454 kts 234°
2026-04-30 22:27 30.41774 68.28016 36819 ft 453 kts 234°
2026-04-30 22:27 30.35322 68.20034 36815 ft 452 kts 234°
2026-04-30 22:28 30.28868 68.12065 36811 ft 452 kts 234°
2026-04-30 22:29 30.20270 68.01469 36784 ft 451 kts 234°
2026-04-30 22:31 30.05206 67.82956 36738 ft 451 kts 234°
2026-04-30 22:32 29.94515 67.69718 36715 ft 451 kts 234°
2026-04-30 22:33 29.83811 67.56524 36710 ft 451 kts 234°
2026-04-30 22:35 29.73088 67.43354 36719 ft 450 kts 233°
2026-04-30 22:36 29.62405 67.30207 36763 ft 452 kts 233°
2026-04-30 22:37 29.53790 67.19642 36778 ft 454 kts 233°
2026-04-30 22:38 29.45132 67.09056 36815 ft 456 kts 233°
2026-04-30 22:39 29.38609 67.01100 36831 ft 456 kts 232°
2026-04-30 22:40 29.25550 66.85214 36857 ft 458 kts 232°
2026-04-30 22:41 29.14610 66.71955 36865 ft 459 kts 232°
2026-04-30 22:43 29.01445 66.56055 36867 ft 459 kts 232°
2026-04-30 22:44 28.92682 66.45451 36866 ft 459 kts 232°
2026-04-30 22:45 28.79516 66.29578 36846 ft 459 kts 232°
2026-04-30 22:47 28.66426 66.13857 36830 ft 455 kts 230°
2026-04-30 22:48 28.57661 66.03367 36814 ft 456 kts 230°
2026-04-30 22:49 28.44559 65.87736 36784 ft 456 kts 230°
2026-04-30 22:51 28.31407 65.72101 36771 ft 456 kts 230°
2026-04-30 22:52 28.24821 65.64299 36761 ft 456 kts 230°
2026-04-30 22:53 28.16035 65.53908 36756 ft 456 kts 230°
2026-04-30 22:53 28.09441 65.46130 36745 ft 456 kts 230°
2026-04-30 22:55 27.98443 65.33186 36745 ft 456 kts 230°
2026-04-30 22:56 27.89641 65.22857 36747 ft 456 kts 229°
2026-04-30 22:57 27.78623 65.09962 36749 ft 456 kts 229°
2026-04-30 22:58 27.69832 64.99704 36756 ft 456 kts 229°
2026-04-30 22:59 27.56582 64.84287 36764 ft 456 kts 229°